"Pseudo-MPEC" for HKmOX3a

Created 2022 Aug 20 11:22:09 UT using Find_Orb

Click here for an explanation of pseudo-MPECs

 
 Astrometry: 
     HKmOX3a*KC2022 07 23[jhOrkVN;VPZB$!kI[6c*0oupjAstrometryhOsJredacted;s;y221
     HKmOX3a KC2022 07 2354Ek:!Ft?hxtZGVpe:4clickiP$X%w(y9[h'4w@5D:/2l)ln9bYT221
     HKmOX3a KC2022 07 23BmwrLURI7+heresswy-ufortw?h,+[5x)O:b]7/4c5j;9'FUTt-.221
     HKmOX3a KC2022 07 25'((X!Jd,+T*4]yPt6:.yOxoBZ;x45_Bqg$OhOnt4Y#_2-YHGg!Q@221
     HKmOX3a KC2022 07 25psTfKh!0explanationeLQCV?rJna'de9qxas?$9gQmS#6.g![?x221

Station data:
(221) IAS Observatory, Hakos  (S23.236367 E16.361700)  Namibia.  Observers D.
   Husar, L. Demetz. Measurer D. Husar. 0.2-m f/3 Riccardi-Honders + CCD0.5-m
   f/6.8 Corrected Dall-Kirkham + CCD.

Orbital elements:  HKmOX3a
   Perihelion 2022 Jun 15.72897 +/- 33.3 TT = 17:29:42 (JD 2459746.22897)
Epoch 2022 Jul 25.0 TT = JDT 2459785.5   Earth MOID: 0.4122   Ma: 0.0982
M   7.30166219 +/- 10               (J2000 ecliptic)          AutoNEOCP
n   0.18592997 +/- 0.161            Peri.  305.96845 +/- 40
a   3.04020665 +/- 1.76             Node   327.75870 +/- 12
e   0.5575827 +/- 0.223             Incl.   17.87095 +/- 6
P   5.30                   H 18.3   G  0.15   U 11.5  SR
q 1.34503976 +/- 0.154    Q 4.73537354 +/- 16.1
From 5 observations 2022 July 23-25 (47.0 hr); mean residual 0".29
Residuals in arcseconds: 
220723 221  .25+  .36-    220723 221  .25-  .28+    220725 221  .28+  .41-    
220723 221  .00   .08+    220725 221  .28-  .41+    

Ephemerides (geocentric):
Date (UTC) HH   RA             Dec           delta  r     elong  mag " sig PA
---- --------  ------------   ------------  ------ ------ -----  --- --------
2022 08 20 11  21 00 30.452   -22 58 15.17  .52598 1.5225 162.9 18.5 288'  69
2022 08 20 12  21 00 28.573   -22 56 49.28  .52625 1.5227 162.9 18.5 289'  69
2022 08 20 13  21 00 26.699   -22 55 23.44  .52652 1.5229 162.8 18.5 289'  69
2022 08 20 14  21 00 24.830   -22 53 57.67  .52680 1.5231 162.8 18.5 290'  69
2022 08 20 15  21 00 22.966   -22 52 31.97  .52707 1.5233 162.8 18.5 291'  69
2022 08 20 16  21 00 21.107   -22 51 06.33  .52734 1.5235 162.8 18.5 291'  69
2022 08 20 17  21 00 19.253   -22 49 40.75  .52761 1.5237 162.7 18.5 292'  69
2022 08 20 18  21 00 17.404   -22 48 15.23  .52789 1.5239 162.7 18.5 293'  69
2022 08 20 19  21 00 15.559   -22 46 49.78  .52816 1.5241 162.7 18.5 294'  69
2022 08 20 20  21 00 13.720   -22 45 24.39  .52843 1.5243 162.6 18.5 294'  70
2022 08 20 21  21 00 11.886   -22 43 59.07  .52871 1.5245 162.6 18.5 295'  70
2022 08 20 22  21 00 10.056   -22 42 33.81  .52898 1.5247 162.6 18.5 296'  70
2022 08 20 23  21 00 08.232   -22 41 08.62  .52925 1.5249 162.5 18.5 296'  70
2022 08 21 00  21 00 06.412   -22 39 43.49  .52953 1.5252 162.5 18.5 297'  70
2022 08 21 01  21 00 04.598   -22 38 18.42  .52980 1.5254 162.5 18.5 298'  70
2022 08 21 02  21 00 02.788   -22 36 53.42  .53008 1.5256 162.4 18.5 298'  70
2022 08 21 03  21 00 00.983   -22 35 28.48  .53036 1.5258 162.4 18.6 299'  70
2022 08 21 04  20 59 59.184   -22 34 03.61  .53063 1.5260 162.4 18.6 300'  70
2022 08 21 05  20 59 57.389   -22 32 38.80  .53091 1.5262 162.4 18.6 301'  70
2022 08 21 06  20 59 55.599   -22 31 14.05  .53119 1.5264 162.3 18.6 301'  70
2022 08 21 07  20 59 53.814   -22 29 49.37  .53146 1.5266 162.3 18.6 302'  70
2022 08 21 08  20 59 52.035   -22 28 24.76  .53174 1.5268 162.3 18.6 303'  70
2022 08 21 09  20 59 50.260   -22 27 00.21  .53202 1.5270 162.2 18.6 303'  70
2022 08 21 10  20 59 48.490   -22 25 35.72  .53230 1.5272 162.2 18.6 304'  70
2022 08 21 11  20 59 46.725   -22 24 11.30  .53258 1.5274 162.2 18.6 305'  70
2022 08 21 12  20 59 44.965   -22 22 46.94  .53286 1.5276 162.1 18.6 306'  70
2022 08 21 13  20 59 43.209   -22 21 22.65  .53314 1.5278 162.1 18.6 306'  70
2022 08 21 14  20 59 41.459   -22 19 58.42  .53342 1.5280 162.1 18.6 307'  70
2022 08 21 15  20 59 39.714   -22 18 34.26  .53370 1.5282 162.0 18.6 308'  70
2022 08 21 16  20 59 37.974   -22 17 10.16  .53398 1.5284 162.0 18.6 308'  70
2022 08 21 17  20 59 36.239   -22 15 46.13  .53426 1.5286 162.0 18.6 309'  70
2022 08 21 18  20 59 34.508   -22 14 22.16  .53454 1.5289 161.9 18.6 310'  70
2022 08 21 19  20 59 32.783   -22 12 58.26  .53482 1.5291 161.9 18.6 311'  70
2022 08 21 20  20 59 31.062   -22 11 34.42  .53511 1.5293 161.9 18.6 311'  70
2022 08 21 21  20 59 29.347   -22 10 10.65  .53539 1.5295 161.9 18.6 312'  70
2022 08 21 22  20 59 27.637   -22 08 46.95  .53567 1.5297 161.8 18.6 313'  70
2022 08 21 23  20 59 25.931   -22 07 23.30  .53595 1.5299 161.8 18.6 313'  70
2022 08 22 00  20 59 24.230   -22 05 59.73  .53624 1.5301 161.8 18.6 314'  70
2022 08 22 01  20 59 22.535   -22 04 36.22  .53652 1.5303 161.7 18.6 315'  70
2022 08 22 02  20 59 20.844   -22 03 12.77  .53681 1.5305 161.7 18.6 315'  70
2022 08 22 03  20 59 19.158   -22 01 49.39  .53709 1.5307 161.7 18.6 316'  70
2022 08 22 04  20 59 17.478   -22 00 26.07  .53738 1.5309 161.6 18.6 317'  70
2022 08 22 05  20 59 15.802   -21 59 02.82  .53766 1.5311 161.6 18.6 318'  70
2022 08 22 06  20 59 14.131   -21 57 39.64  .53795 1.5313 161.6 18.6 318'  70
2022 08 22 07  20 59 12.465   -21 56 16.52  .53823 1.5315 161.5 18.6 319'  70
2022 08 22 08  20 59 10.804   -21 54 53.47  .53852 1.5318 161.5 18.6 320'  70
2022 08 22 09  20 59 09.148   -21 53 30.48  .53881 1.5320 161.5 18.6 320'  70
2022 08 22 10  20 59 07.497   -21 52 07.56  .53909 1.5322 161.4 18.6 321'  70